Weather History for Columbia, MO

Change the Weather History Date:

Monday, March 4, 2013

  Actual Average Record
Temperature  
Mean Temperature 42 °F 40 °F  
Max Temperature 50 °F 50 °F 80 °F (1938)
Min Temperature 34 °F 30 °F -5 °F (1978)
Degree Days  
Heating Degree Days 23 25  
Month to date heating degree days 140 102  
Since 1 July heating degree days 3723 4048  
Cooling Degree Days 0 0  
Month to date cooling degree days 0 0  
Year to date cooling degree days 1 0  
Moisture  
Dew Point 28 °F    
Average Humidity 63    
Maximum Humidity 76    
Minimum Humidity 49    
Precipitation  
Precipitation 0.00 in 0.09 in 1.78 in (1897)
Month to date precipitation 0.01 0.34  
Year to date precipitation 6.25 4.51  
Snow  
Snow 0.00 in 0.00 in 6.40 in (1965)
Month to date snowfall 0.1 0.3  
Since 1 July snowfall 24.8 16.4  
Snow Depth 0.00 in    
Sea Level Pressure  
Sea Level Pressure 29.79 in    
Wind  
Wind Speed 12 mph (East)    
Max Wind Speed 16 mph    
Max Gust Speed 23 mph    
Visibility 10 miles    
Events      
T = Trace of Precipitation, MM = Missing Value Source: NWS Daily Summary

Daily Weather History Graph

Daily Weather History Graph

Search for Another Location

Airport:

Trip Planner

Search our weather history database for the weather conditions in past years. The results will help you decide how hot, cold, wet, or windy it might be!

Date:

Astronomy

Mar. 04, 2013 Rise Set
Actual Time 6:36 AM CST 6:05 PM CST
Civil Twilight 6:09 AM CST 6:31 PM CST
Nautical Twilight 5:39 AM CST 7:02 PM CST
Astronomical Twilight 5:08 AM CST 7:33 PM CST
Moon 12:44 AM CST (3/4) 10:49 AM CST (3/4)
Length of Visible Light 12h 21m
Length of Day
11h 28m
Waning Gibbous, 52% of the Moon is Illuminated
Mar 4
Waning Gibbous
Mar 4
Last Quarter
Mar 11
New
Mar 19
First Quarter
Mar 27
Full

Hourly Weather History & Observations

Time (CST) Temp. Windchill Dew Point Humidity Pressure Visibility Wind Dir Wind Speed Gust Speed Precip Events Conditions
12:54 AM 36.0 °F 26.7 °F 23.0 °F 59% 29.92 in 10.0 mi SE 15.0 mph - N/A   Clear
1:54 AM 36.0 °F 27.1 °F 24.1 °F 62% 29.89 in 10.0 mi SE 13.8 mph - N/A   Clear
2:54 AM 36.0 °F 26.3 °F 24.1 °F 62% 29.85 in 10.0 mi ESE 16.1 mph - N/A   Clear
3:54 AM 36.0 °F 26.7 °F 24.1 °F 62% 29.83 in 10.0 mi ESE 15.0 mph - N/A   Clear
4:54 AM 35.1 °F 26.4 °F 24.1 °F 64% 29.83 in 10.0 mi ESE 12.7 mph - N/A   Clear
5:54 AM 34.0 °F 24.6 °F 24.1 °F 67% 29.82 in 10.0 mi ESE 13.8 mph - N/A   Clear
6:54 AM 34.0 °F 23.8 °F 25.0 °F 70% 29.81 in 10.0 mi ESE 16.1 mph - N/A   Clear
7:54 AM 35.1 °F 25.9 °F 25.0 °F 67% 29.81 in 10.0 mi ESE 13.8 mph - N/A   Clear
8:54 AM 37.0 °F 28.1 °F 26.1 °F 65% 29.81 in 10.0 mi SE 15.0 mph - N/A   Clear
9:54 AM 39.9 °F 32.1 °F 26.1 °F 58% 29.78 in 10.0 mi SE 13.8 mph 23.0 mph N/A   Clear
10:54 AM 41.0 °F 33.9 °F 27.0 °F 57% 29.76 in 10.0 mi SE 12.7 mph - N/A   Clear
11:54 AM 44.1 °F 37.7 °F 28.0 °F 53% 29.75 in 10.0 mi SE 12.7 mph - N/A   Clear
12:54 PM 46.0 °F 41.4 °F 28.9 °F 51% 29.73 in 10.0 mi SE 9.2 mph - N/A   Clear
1:54 PM 48.0 °F - 30.0 °F 50% 29.71 in 10.0 mi East 6.9 mph - N/A   Clear
2:54 PM 48.9 °F - 30.9 °F 50% 29.71 in 10.0 mi ESE 9.2 mph - N/A   Clear
3:54 PM 46.9 °F - 30.0 °F 52% 29.72 in 10.0 mi East 6.9 mph - N/A   Clear
4:54 PM 48.0 °F - 30.9 °F 52% 29.74 in 10.0 mi ENE 6.9 mph - N/A   Clear
5:54 PM 43.0 °F 38.8 °F 30.0 °F 60% 29.75 in 10.0 mi NE 6.9 mph - N/A   Clear
6:54 PM 41.0 °F 34.7 °F 30.0 °F 65% 29.78 in 10.0 mi NE 10.4 mph - N/A   Overcast
7:54 PM 41.0 °F 34.7 °F 30.0 °F 65% 29.78 in 10.0 mi NE 10.4 mph - N/A   Overcast
8:54 PM 39.9 °F 32.9 °F 30.0 °F 68% 29.81 in 10.0 mi NNE 11.5 mph - N/A   Overcast
9:54 PM 39.0 °F 32.3 °F 30.9 °F 73% 29.81 in 10.0 mi NE 10.4 mph - N/A   Mostly Cloudy
10:54 PM 37.9 °F 32.7 °F 30.9 °F 76% 29.83 in 10.0 mi NNE 6.9 mph - N/A   Overcast
11:54 PM 37.0 °F 29.3 °F 32.0 °F 82% 29.85 in 10.0 mi NW 11.5 mph - N/A   Overcast